Total_Precipitation_Accumulation
0.92 1.52 1.84 1.69 1.66 1.62 1.41 1.37 1.25 1.08 1.04 1.12 1.04 1.03 1.05 1.04 1.02 0.91 0.78 0.66 0.64 0.63 0.59 0.56 0.53 0.55 0.60 0.67 0.73 0.83 0.92 1.08 1.18 1.24 1.36 1.56 1.73 1.88 1.97 2.02 1.89 1.75 1.72 1.88
1.03 1.36 1.05 0.93 1.10 1.15 1.24 1.28 1.13 0.98 0.83 0.87 0.91 0.94 0.94 0.88 0.87 0.77 0.66 0.58 0.51 0.46 0.44 0.40 0.36 0.39 0.44 0.45 0.50 0.61 0.74 0.82 0.95 1.12 1.38 1.59 1.87 1.95 2.03 2.10 2.09 2.00 1.94 2.09
1.11 0.98 0.69 0.78 0.98 1.03 1.05 1.12 1.02 0.95 0.84 0.77 0.77 0.94 0.87 0.80 0.76 0.67 0.54 0.47 0.40 0.33 0.29 0.24 0.24 0.31 0.38 0.37 0.40 0.48 0.61 0.77 1.01 1.25 1.57 1.84 2.12 2.23 2.29 2.25 2.26 2.25 2.26 2.31
1.00 0.74 0.67 0.81 0.89 0.92 1.04 0.76 0.71 0.73 0.91 0.96 0.79 1.09 0.80 0.66 0.65 0.59 0.51 0.46 0.39 0.31 0.27 0.26 0.25 0.27 0.30 0.34 0.40 0.53 0.73 0.94 1.23 1.57 1.93 2.19 2.46 2.60 2.44 2.41 2.41 2.37 2.29 2.29
0.86 0.68 0.66 0.78 0.65 0.62 0.73 0.61 0.72 0.77 0.82 0.79 0.61 0.78 0.70 0.55 0.61 0.53 0.45 0.45 0.45 0.41 0.33 0.31 0.33 0.34 0.39 0.47 0.55 0.74 1.00 1.31 1.60 1.86 2.04 2.29 2.42 2.44 2.39 2.36 2.36 2.27 2.22 2.19
0.62 0.54 0.56 0.55 0.49 0.50 0.56 0.67 0.81 0.84 0.90 0.95 0.53 0.62 0.73 0.56 0.52 0.50 0.45 0.40 0.38 0.39 0.37 0.38 0.41 0.50 0.59 0.66 0.82 1.01 1.18 1.49 1.69 1.84 1.95 2.09 2.23 2.29 2.29 2.29 2.33 2.32 2.28 2.16
0.57 0.48 0.40 0.36 0.46 0.48 0.55 0.96 1.33 1.34 1.26 0.95 0.46 0.66 0.76 0.56 0.44 0.39 0.40 0.39 0.36 0.40 0.46 0.48 0.59 0.75 0.82 0.87 1.00 1.17 1.25 1.44 1.54 1.60 1.72 1.86 1.91 1.94 1.97 1.98 1.98 1.91 1.86 1.84
0.59 0.58 0.39 0.34 0.43 0.51 0.50 0.79 1.32 1.43 1.23 0.89 0.62 0.91 0.82 0.57 0.45 0.41 0.41 0.41 0.43 0.53 0.64 0.75 0.89 0.99 1.07 1.10 1.08 1.14 1.28 1.30 1.30 1.36 1.37 1.49 1.58 1.63 1.67 1.64 1.64 1.68 1.71 1.74
0.51 0.51 0.33 0.27 0.28 0.39 0.52 0.56 0.63 0.92 0.87 0.91 0.87 1.04 0.95 0.58 0.48 0.47 0.47 0.46 0.53 0.68 0.89 1.15 1.35 1.44 1.51 1.45 1.29 1.16 1.17 1.15 1.13 1.23 1.30 1.33 1.39 1.43 1.45 1.46 1.38 1.49 1.52 1.52
0.40 0.50 0.39 0.28 0.32 0.34 0.43 0.57 0.73 1.09 1.28 1.26 1.14 1.26 1.21 0.81 0.64 0.57 0.60 0.66 0.79 1.00 1.33 1.63 1.90 2.07 2.04 1.82 1.56 1.33 1.15 1.06 1.04 1.10 1.18 1.26 1.29 1.30 1.26 1.30 1.23 1.26 1.36 1.35
0.34 0.51 0.46 0.38 0.42 0.45 0.47 0.65 0.82 1.05 1.10 1.41 1.60 1.57 1.28 1.08 0.90 0.83 0.93 1.11 1.29 1.56 1.79 1.98 2.15 2.28 2.08 1.87 1.59 1.32 1.14 1.13 1.15 1.17 1.21 1.23 1.19 1.17 1.15 1.11 1.07 1.11 1.20 1.19
0.29 0.46 0.52 0.34 0.30 0.36 0.58 0.84 1.09 1.50 1.39 1.30 1.61 1.69 1.21 1.04 1.02 1.03 1.14 1.23 1.37 1.51 1.54 1.66 1.76 1.77 1.82 1.76 1.56 1.36 1.23 1.22 1.26 1.28 1.31 1.26 1.20 1.14 1.11 1.07 1.00 0.98 0.95 0.92
0.40 0.62 0.72 0.64 0.64 0.65 0.74 0.79 0.87 1.07 1.21 1.26 1.59 1.67 1.10 0.96 0.92 1.04 1.20 1.26 1.37 1.40 1.32 1.32 1.36 1.47 1.56 1.58 1.48 1.44 1.39 1.40 1.40 1.36 1.24 1.17 1.10 1.03 0.99 0.91 0.85 0.89 0.88 0.95
0.38 0.62 0.75 0.87 0.82 0.72 0.77 0.75 0.68 0.81 1.15 1.17 1.34 1.34 1.12 1.06 0.99 1.02 1.13 1.22 1.18 1.11 1.04 1.04 1.12 1.23 1.32 1.34 1.35 1.32 1.29 1.33 1.43 1.49 1.39 1.27 1.15 1.06 1.02 0.94 0.85 0.83 0.84 0.92
0.30 0.38 0.37 0.35 0.33 0.41 0.63 0.74 0.72 0.73 0.79 1.04 1.06 0.97 0.94 0.92 0.92 0.87 0.88 0.86 0.77 0.71 0.73 0.77 0.83 0.85 0.83 0.81 0.89 0.94 1.03 1.16 1.33 1.48 1.47 1.36 1.18 1.05 0.99 0.96 0.87 0.85 0.85 0.86
0.24 0.28 0.26 0.26 0.23 0.31 0.46 0.56 0.58 0.56 0.57 0.65 0.73 0.74 0.64 0.61 0.63 0.63 0.66 0.62 0.57 0.52 0.48 0.47 0.48 0.49 0.48 0.46 0.46 0.49 0.59 0.77 1.02 1.29 1.29 1.12 0.97 0.82 0.77 0.80 0.83 0.84 0.81 0.85
0.20 0.27 0.34 0.38 0.30 0.31 0.51 0.52 0.48 0.48 0.42 0.43 0.49 0.50 0.46 0.49 0.54 0.55 0.61 0.62 0.49 0.40 0.37 0.35 0.34 0.34 0.34 0.34 0.34 0.37 0.46 0.59 0.77 0.90 0.91 0.82 0.75 0.73 0.78 0.82 0.78 0.79 0.81 0.81
0.19 0.27 0.37 0.40 0.42 0.64 0.80 0.67 0.56 0.52 0.34 0.28 0.29 0.32 0.36 0.46 0.49 0.50 0.48 0.48 0.47 0.36 0.29 0.27 0.27 0.27 0.32 0.33 0.37 0.42 0.49 0.55 0.59 0.62 0.65 0.62 0.62 0.64 0.71 0.75 0.75 0.81 0.86 0.81
0.22 0.34 0.44 0.49 0.57 0.74 0.76 0.63 0.63 0.62 0.48 0.27 0.24 0.25 0.24 0.25 0.27 0.28 0.29 0.28 0.27 0.24 0.20 0.18 0.18 0.19 0.22 0.22 0.23 0.26 0.29 0.32 0.34 0.34 0.35 0.39 0.42 0.45 0.48 0.51 0.60 0.72 0.79 0.81
0.22 0.31 0.46 0.52 0.63 0.76 0.59 0.37 0.37 0.53 0.67 0.26 0.19 0.19 0.16 0.16 0.23 0.23 0.23 0.24 0.20 0.18 0.19 0.19 0.16 0.17 0.19 0.19 0.20 0.19 0.20 0.21 0.22 0.23 0.25 0.28 0.31 0.33 0.36 0.41 0.46 0.54 0.56 0.63
0.25 0.32 0.39 0.48 0.68 0.86 0.62 0.39 0.35 0.62 0.67 0.24 0.16 0.16 0.16 0.17 0.17 0.17 0.19 0.21 0.18 0.17 0.17 0.19 0.19 0.18 0.19 0.22 0.22 0.21 0.22 0.23 0.26 0.29 0.30 0.31 0.30 0.32 0.36 0.40 0.44 0.47 0.51 0.60
0.28 0.38 0.44 0.59 0.91 1.07 0.78 0.55 0.53 0.48 0.24 0.16 0.12 0.12 0.15 0.15 0.14 0.15 0.17 0.18 0.16 0.15 0.16 0.17 0.18 0.21 0.22 0.22 0.22 0.22 0.22 0.25 0.28 0.31 0.32 0.34 0.33 0.35 0.37 0.42 0.48 0.51 0.54 0.57
0.26 0.30 0.39 0.56 0.81 0.80 0.66 0.52 0.40 0.32 0.21 0.13 0.10 0.12 0.16 0.17 0.17 0.19 0.20 0.18 0.17 0.17 0.15 0.15 0.16 0.17 0.18 0.19 0.19 0.20 0.23 0.26 0.29 0.31 0.33 0.36 0.36 0.36 0.35 0.40 0.47 0.51 0.53 0.55
0.24 0.21 0.26 0.32 0.40 0.38 0.35 0.32 0.24 0.20 0.17 0.12 0.12 0.16 0.20 0.22 0.21 0.19 0.20 0.20 0.18 0.17 0.15 0.14 0.16 0.18 0.19 0.20 0.20 0.23 0.24 0.24 0.25 0.31 0.34 0.36 0.36 0.37 0.38 0.40 0.45 0.49 0.53 0.56
0.22 0.23 0.25 0.28 0.27 0.24 0.22 0.21 0.19 0.15 0.12 0.11 0.13 0.18 0.21 0.22 0.22 0.20 0.19 0.22 0.20 0.18 0.18 0.20 0.21 0.20 0.21 0.22 0.24 0.28 0.31 0.28 0.26 0.29 0.32 0.33 0.35 0.39 0.40 0.41 0.44 0.46 0.51 0.61
0.16 0.20 0.27 0.28 0.21 0.23 0.24 0.20 0.16 0.14 0.11 0.10 0.11 0.13 0.17 0.19 0.21 0.21 0.19 0.20 0.22 0.23 0.22 0.24 0.24 0.24 0.25 0.25 0.27 0.29 0.34 0.36 0.35 0.34 0.32 0.31 0.33 0.37 0.39 0.39 0.40 0.44 0.47 0.57